Flag for Russia Past Weather in Petropavlovsk-Kamchatsky, Russia — Yesterday and Last 2 Weeks

Now
73 °F

Clear.


Feels Like: 77 °F
Forecast: 55 / 78 °F
Wind: 10 mph from South

Location: Petropavlovsk-Kamchatskij

Current Time: Jul 24, 2016 at 6:56:00 PM

Latest Report: Jul 24, 2016 at 6:30 PM


Visibility: N/A

Pressure: 29.98 "Hg

Humidity: 53%

Dew Point: 55 °F

Location of Petropavlovsk-KamchatskyLocation

Past Weather in Petropavlovsk-Kamchatsky — Graph

°F

Petropavlovsk-Kamchatsky Temperature Yesterday

Maximum temperature yesterday: 77 °F (at 2:00 PM)
Minimum temperature yesterday: 55 °F (at 6:00 AM)
Average temperature yesterday: 67 °F

High & Low Weather Summary for the Past Weeks

 TemperatureHumidityPressure
High79 °F (Jul 22, 2:30 PM)100% (Jul 10, 11:30 AM)30.24 "Hg (Jul 10, 11:30 AM)
Low46 °F (Jul 13, 12:00 AM)45% (Jul 24, 3:00 PM)29.65 "Hg (Jul 9, 6:00 PM)
Average57 °F86%30.05 "Hg
* Reported Jul 9 6:00 PM — Jul 24 5:30 PM, Petropavlovsk-Kamchatsky, Weather by CustomWeather, © 2016

Note: Actual official high and low records may vary slightly from our data, if they occured in-between our weather recording intervals... More about our weather records

Advertising

Petropavlovsk-Kamchatsky Weather History for the Previous 24 Hours

Scroll right to see more
 ConditionsComfort  
Time TempWeatherWind HumidityBarometerVisibility
5:30 PM
Sun, Jul 24
77 °FClear.8 mph51%29.98 "HgN/A
4:30 PM79 °FClear.8 mph48%29.98 "HgN/A
4:00 PM79 °FClear.8 mph45%30.01 "HgN/A
3:00 PM79 °FClear.3 mph45%30.01 "HgN/A
2:00 PM75 °FClear.3 mph50%30.01 "HgN/A
1:30 PM75 °FClear.1 mph47%30.04 "HgN/A
12:30 PM73 °FClear.1 mph50%30.04 "HgN/A
12:00 PM72 °FClear.3 mph53%30.04 "HgN/A
11:00 AM66 °FClear.3 mph56%30.07 "HgN/A
10:00 AM64 °FClear.6 mph60%30.07 "HgN/A
9:30 AM63 °FClear.6 mph64%30.07 "HgN/A
9:00 AM61 °FClear.6 mph68%30.07 "HgN/A
8:30 AM59 °FClear.8 mph72%30.09 "HgN/A
7:30 AM57 °FPassing clouds.8 mph77%30.09 "HgN/A
7:00 AM55 °FPassing clouds.8 mph82%30.09 "HgN/A
6:00 AM54 °FClear.8 mph88%30.07 "HgN/A
3:00 AM55 °FClear.6 mph88%30.07 "HgN/A
1:00 AM57 °FClear.3 mph88%30.07 "HgN/A
12:00 AM59 °FPassing clouds.6 mph88%30.07 "HgN/A
11:00 PM
Sat, Jul 23
61 °FClear.1 mph88%30.07 "HgN/A
9:00 PM66 °FClear.3 mph73%30.04 "HgN/A
8:30 PM68 °FClear.6 mph69%30.04 "HgN/A
7:00 PM70 °FPassing clouds.10 mph69%30.01 "HgN/A
6:30 PM72 °FPassing clouds.13 mph69%30.01 "HgN/A
6:00 PM72 °FPassing clouds.10 mph69%30.01 "HgN/A
Weather by CustomWeather, © 2016

See weather overviewHow to use our weather pages